Time,TemperatureF,DewpointF,PressureIn,WindDirection,WindDirectionDegrees,WindSpeedMPH,WindSpeedGustMPH,Humidity,HourlyPrecipIn,Conditions,Clouds,dailyrainin,SoftwareType,DateUTC
2013-02-08 00:00:00,23.4,18.6,30.24,NNW,348,8.8,8.8,81,0.00,,,0.00,CWS Microserver 1.4,2013-02-08 06:00:00,
2013-02-08 00:05:00,23.4,18.5,30.24,North,358,8.1,10.0,81,0.00,,,0.00,CWS Microserver 1.4,2013-02-08 06:05:00,
2013-02-08 00:10:00,23.2,18.3,30.24,North,0,8.1,11.5,81,0.00,,,0.00,CWS Microserver 1.4,2013-02-08 06:10:00,
2013-02-08 00:15:00,23.2,18.3,30.24,North,9,9.3,12.1,81,0.00,,,0.00,CWS Microserver 1.4,2013-02-08 06:15:00,
2013-02-08 00:20:00,23.2,18.3,30.24,NNE,15,7.4,12.1,81,0.00,,,0.00,CWS Microserver 1.4,2013-02-08 06:20:00,
2013-02-08 00:25:00,23.2,18.2,30.24,North,356,9.6,12.1,81,0.00,,,0.00,CWS Microserver 1.4,2013-02-08 06:25:00,
2013-02-08 00:30:00,23.2,18.2,30.24,North,0,6.1,11.7,80,0.00,,,0.00,CWS Microserver 1.4,2013-02-08 06:30:00,
2013-02-08 00:35:00,23.2,17.8,30.25,North,9,8.3,11.7,79,0.00,,,0.00,CWS Microserver 1.4,2013-02-08 06:35:00,
2013-02-08 00:40:00,23.2,17.9,30.25,North,358,6.0,12.1,79,0.00,,,0.00,CWS Microserver 1.4,2013-02-08 06:40:00,
2013-02-08 00:45:00,23.2,18.2,30.25,North,6,4.9,12.1,81,0.00,,,0.00,CWS Microserver 1.4,2013-02-08 06:45:00,
2013-02-08 00:50:00,23.0,18.0,30.24,North,7,11.9,13.3,80,0.00,,,0.00,CWS Microserver 1.4,2013-02-08 06:50:00,
2013-02-08 00:55:00,23.0,17.6,30.24,NNE,25,8.6,15.8,79,0.00,,,0.00,CWS Microserver 1.4,2013-02-08 06:55:00,
2013-02-08 01:00:00,23.0,18.1,30.24,North,8,8.2,15.8,81,0.00,,,0.00,CWS Microserver 1.4,2013-02-08 07:00:00,
2013-02-08 01:05:00,23.0,17.8,30.24,NNE,25,12.3,13.0,80,0.00,,,0.00,CWS Microserver 1.4,2013-02-08 07:05:00,
2013-02-08 01:15:00,22.9,18.1,30.25,North,4,10.1,14.6,81,0.00,,,0.00,CWS Microserver 1.4,2013-02-08 07:15:00,
2013-02-08 01:20:00,22.9,17.6,30.25,NNE,13,9.1,15.0,79,0.00,,,0.00,CWS Microserver 1.4,2013-02-08 07:20:00,
2013-02-08 01:25:00,22.9,17.8,30.25,NNE,25,10.0,15.0,80,0.00,,,0.00,CWS Microserver 1.4,2013-02-08 07:25:00,
2013-02-08 01:30:00,22.7,17.9,30.26,North,349,4.8,14.8,81,0.00,,,0.00,CWS Microserver 1.4,2013-02-08 07:30:00,
2013-02-08 01:35:00,22.7,18.0,30.26,North,5,7.0,14.8,81,0.00,,,0.00,CWS Microserver 1.4,2013-02-08 07:35:00,
2013-02-08 01:40:00,22.7,17.8,30.26,North,11,6.4,12.3,81,0.00,,,0.00,CWS Microserver 1.4,2013-02-08 07:40:00,
2013-02-08 01:45:00,22.5,17.3,30.26,NNE,28,8.1,12.9,80,0.00,,,0.00,CWS Microserver 1.4,2013-02-08 07:45:00,
2013-02-08 01:50:00,22.5,17.2,30.26,NNE,13,7.9,13.7,79,0.00,,,0.00,CWS Microserver 1.4,2013-02-08 07:50:00,
2013-02-08 01:55:00,22.5,17.2,30.26,NNE,25,7.2,13.7,79,0.00,,,0.00,CWS Microserver 1.4,2013-02-08 07:55:00,
2013-02-08 02:05:00,22.5,17.1,30.26,North,8,5.7,13.2,79,0.00,,,0.00,CWS Microserver 1.4,2013-02-08 08:05:00,
2013-02-08 02:10:00,22.3,16.5,30.26,NNE,16,6.0,13.2,77,0.00,,,0.00,CWS Microserver 1.4,2013-02-08 08:10:00,
2013-02-08 02:15:00,22.3,16.9,30.26,North,4,7.6,11.3,79,0.00,,,0.00,CWS Microserver 1.4,2013-02-08 08:15:00,
2013-02-08 02:20:00,22.1,16.3,30.26,NNE,14,11.7,13.9,78,0.00,,,0.00,CWS Microserver 1.4,2013-02-08 08:20:00,
2013-02-08 02:25:00,22.1,16.6,30.26,NNE,23,7.5,13.9,79,0.00,,,0.00,CWS Microserver 1.4,2013-02-08 08:25:00,
2013-02-08 02:35:00,22.1,16.7,30.26,NE,40,9.7,14.0,79,0.00,,,0.00,CWS Microserver 1.4,2013-02-08 08:35:00,
2013-02-08 02:40:00,22.1,16.6,30.26,NNE,25,5.9,10.5,79,0.00,,,0.00,CWS Microserver 1.4,2013-02-08 08:40:00,
2013-02-08 02:45:00,22.1,16.6,30.27,NE,44,3.7,11.6,78,0.00,,,0.00,CWS Microserver 1.4,2013-02-08 08:45:00,
2013-02-08 02:50:00,22.1,16.5,30.26,NE,50,6.5,11.6,78,0.00,,,0.00,CWS Microserver 1.4,2013-02-08 08:50:00,
2013-02-08 02:55:00,22.1,16.6,30.26,NE,42,7.9,12.5,78,0.00,,,0.00,CWS Microserver 1.4,2013-02-08 08:55:00,
2013-02-08 03:00:00,22.1,16.6,30.26,NE,45,6.3,12.5,79,0.00,,,0.00,CWS Microserver 1.4,2013-02-08 09:00:00,
2013-02-08 03:05:00,22.1,16.5,30.25,NE,38,4.7,11.1,78,0.00,,,0.00,CWS Microserver 1.4,2013-02-08 09:05:00,
2013-02-08 03:10:00,22.1,16.6,30.25,ENE,77,8.3,9.3,79,0.00,,,0.00,CWS Microserver 1.4,2013-02-08 09:10:00,
2013-02-08 03:15:00,22.0,16.2,30.25,ENE,78,5.5,10.7,78,0.00,,,0.00,CWS Microserver 1.4,2013-02-08 09:15:00,
2013-02-08 03:20:00,22.0,16.0,30.26,NE,36,4.7,10.7,77,0.00,,,0.00,CWS Microserver 1.4,2013-02-08 09:20:00,
2013-02-08 03:25:00,22.0,16.3,30.26,NNE,15,5.9,9.5,78,0.00,,,0.00,CWS Microserver 1.4,2013-02-08 09:25:00,
2013-02-08 03:30:00,22.0,16.2,30.26,NNE,20,6.3,8.4,78,0.00,,,0.00,CWS Microserver 1.4,2013-02-08 09:30:00,
2013-02-08 03:35:00,22.0,16.1,30.26,NE,44,5.4,8.5,77,0.00,,,0.00,CWS Microserver 1.4,2013-02-08 09:35:00,
2013-02-08 03:40:00,22.0,16.1,30.26,NNE,32,6.7,8.5,77,0.00,,,0.00,CWS Microserver 1.4,2013-02-08 09:40:00,
2013-02-08 03:45:00,22.0,16.0,30.26,NNE,32,5.1,8.4,77,0.00,,,0.00,CWS Microserver 1.4,2013-02-08 09:45:00,
2013-02-08 03:50:00,21.8,15.6,30.26,NE,49,4.9,8.9,76,0.00,,,0.00,CWS Microserver 1.4,2013-02-08 09:50:00,
2013-02-08 03:55:00,21.8,15.7,30.26,ENE,75,3.6,8.9,77,0.00,,,0.00,CWS Microserver 1.4,2013-02-08 09:55:00,
2013-02-08 04:00:00,21.8,15.8,30.26,NE,38,2.1,6.3,77,0.00,,,0.00,CWS Microserver 1.4,2013-02-08 10:00:00,
2013-02-08 04:05:00,21.8,15.9,30.26,North,354,1.4,5.7,77,0.00,,,0.00,CWS Microserver 1.4,2013-02-08 10:05:00,
2013-02-08 04:10:00,21.8,16.0,30.26,NNE,13,3.2,4.2,78,0.00,,,0.00,CWS Microserver 1.4,2013-02-08 10:10:00,
2013-02-08 04:15:00,21.8,15.9,30.27,NE,39,5.3,7.6,77,0.00,,,0.00,CWS Microserver 1.4,2013-02-08 10:15:00,
2013-02-08 04:20:00,21.8,16.0,30.27,NNW,344,1.4,7.6,77,0.00,,,0.00,CWS Microserver 1.4,2013-02-08 10:20:00,
2013-02-08 04:25:00,21.8,16.2,30.27,NW,308,3.8,6.0,78,0.00,,,0.00,CWS Microserver 1.4,2013-02-08 10:25:00,
2013-02-08 04:30:00,21.8,15.8,30.27,West,274,2.1,4.4,77,0.00,,,0.00,CWS Microserver 1.4,2013-02-08 10:30:00,
2013-02-08 04:35:00,21.8,15.9,30.27,NNW,335,2.7,4.8,77,0.00,,,0.00,CWS Microserver 1.4,2013-02-08 10:35:00,
2013-02-08 04:40:00,21.8,15.9,30.27,NW,326,5.0,5.9,77,0.00,,,0.00,CWS Microserver 1.4,2013-02-08 10:40:00,
2013-02-08 04:45:00,21.6,15.7,30.27,NE,34,1.2,6.0,77,0.00,,,0.00,CWS Microserver 1.4,2013-02-08 10:45:00,
2013-02-08 04:50:00,21.6,15.8,30.27,North,8,1.3,6.0,78,0.00,,,0.00,CWS Microserver 1.4,2013-02-08 10:50:00,
2013-02-08 04:55:00,21.6,16.1,30.27,NNE,16,2.8,3.2,79,0.00,,,0.00,CWS Microserver 1.4,2013-02-08 10:55:00,
2013-02-08 05:00:00,21.6,15.9,30.28,NW,311,3.3,4.3,78,0.00,,,0.00,CWS Microserver 1.4,2013-02-08 11:00:00,
2013-02-08 05:05:00,21.8,16.2,30.27,NNW,333,4.4,7.5,78,0.00,,,0.00,CWS Microserver 1.4,2013-02-08 11:05:00,
2013-02-08 05:15:00,21.8,16.3,30.28,NE,48,3.4,7.6,78,0.00,,,0.00,CWS Microserver 1.4,2013-02-08 11:15:00,
2013-02-08 05:20:00,21.8,16.5,30.28,North,8,4.0,4.8,79,0.00,,,0.00,CWS Microserver 1.4,2013-02-08 11:20:00,
2013-02-08 05:25:00,21.8,16.2,30.28,NW,320,2.9,6.2,78,0.00,,,0.00,CWS Microserver 1.4,2013-02-08 11:25:00,
2013-02-08 05:30:00,21.8,16.2,30.28,NNW,331,2.3,6.2,78,0.00,,,0.00,CWS Microserver 1.4,2013-02-08 11:30:00,
2013-02-08 05:35:00,21.8,16.4,30.28,NNE,27,0.6,3.4,79,0.00,,,0.00,CWS Microserver 1.4,2013-02-08 11:35:00,
2013-02-08 05:40:00,21.8,16.5,30.28,WNW,303,2.7,3.2,79,0.00,,,0.00,CWS Microserver 1.4,2013-02-08 11:40:00,
2013-02-08 05:45:00,21.8,16.4,30.28,NW,322,2.4,3.2,79,0.00,,,0.00,CWS Microserver 1.4,2013-02-08 11:45:00,
2013-02-08 05:50:00,21.8,16.3,30.28,NW,309,0.9,3.0,79,0.00,,,0.00,CWS Microserver 1.4,2013-02-08 11:50:00,
2013-02-08 05:55:00,21.8,16.4,30.27,SSW,206,0.5,2.8,79,0.00,,,0.00,CWS Microserver 1.4,2013-02-08 11:55:00,
2013-02-08 06:00:00,22.0,16.4,30.27,ENE,58,2.2,2.4,78,0.00,,,0.00,CWS Microserver 1.4,2013-02-08 12:00:00,
2013-02-08 06:05:00,22.0,16.5,30.26,NE,52,4.4,6.3,79,0.00,,,0.00,CWS Microserver 1.4,2013-02-08 12:05:00,
2013-02-08 06:10:00,22.1,16.7,30.26,ENE,77,5.2,8.0,79,0.00,,,0.00,CWS Microserver 1.4,2013-02-08 12:10:00,
2013-02-08 06:15:00,22.0,16.4,30.26,ENE,75,3.0,8.2,78,0.00,,,0.00,CWS Microserver 1.4,2013-02-08 12:15:00,
2013-02-08 06:20:00,22.0,16.7,30.27,NNE,28,4.9,8.2,79,0.00,,,0.00,CWS Microserver 1.4,2013-02-08 12:20:00,
2013-02-08 06:25:00,22.0,17.0,30.27,NNE,25,5.2,6.3,80,0.00,,,0.00,CWS Microserver 1.4,2013-02-08 12:25:00,
2013-02-08 06:30:00,22.0,16.7,30.27,NE,37,6.8,7.1,79,0.00,,,0.00,CWS Microserver 1.4,2013-02-08 12:30:00,
2013-02-08 06:35:00,22.0,16.5,30.28,ENE,68,1.5,7.6,78,0.00,,,0.00,CWS Microserver 1.4,2013-02-08 12:35:00,
2013-02-08 06:45:00,22.0,16.3,30.28,NE,46,2.8,8.2,78,0.00,,,0.00,CWS Microserver 1.4,2013-02-08 12:45:00,
2013-02-08 06:50:00,22.1,16.4,30.29,NNE,14,2.9,8.2,78,0.00,,,0.00,CWS Microserver 1.4,2013-02-08 12:50:00,
2013-02-08 06:55:00,22.1,16.5,30.29,ENE,57,2.1,4.6,78,0.00,,,0.00,CWS Microserver 1.4,2013-02-08 12:55:00,
2013-02-08 07:00:00,22.1,16.5,30.29,NNW,330,1.3,4.0,78,0.00,,,0.00,CWS Microserver 1.4,2013-02-08 13:00:00,
2013-02-08 07:05:00,22.1,16.7,30.30,NNE,30,3.9,4.1,79,0.00,,,0.00,CWS Microserver 1.4,2013-02-08 13:05:00,
2013-02-08 07:10:00,22.0,16.1,30.29,NNE,30,5.2,7.3,77,0.00,,,0.00,CWS Microserver 1.4,2013-02-08 13:10:00,
2013-02-08 07:15:00,22.0,16.3,30.29,NE,35,3.3,7.3,78,0.00,,,0.00,CWS Microserver 1.4,2013-02-08 13:15:00,
2013-02-08 07:20:00,22.0,16.5,30.29,ENE,62,4.5,5.7,79,0.00,,,0.00,CWS Microserver 1.4,2013-02-08 13:20:00,
2013-02-08 07:25:00,22.0,16.3,30.29,NE,38,5.5,7.7,78,0.00,,,0.00,CWS Microserver 1.4,2013-02-08 13:25:00,
2013-02-08 07:30:00,22.0,16.3,30.29,North,9,3.6,9.5,78,0.00,,,0.00,CWS Microserver 1.4,2013-02-08 13:30:00,
2013-02-08 07:35:00,22.0,16.5,30.29,NE,41,4.9,9.8,78,0.00,,,0.00,CWS Microserver 1.4,2013-02-08 13:35:00,
2013-02-08 07:40:00,22.0,16.3,30.29,NNE,32,6.0,9.8,78,0.00,,,0.00,CWS Microserver 1.4,2013-02-08 13:40:00,
2013-02-08 07:45:00,22.0,16.3,30.30,ENE,59,5.1,8.5,78,0.00,,,0.00,CWS Microserver 1.4,2013-02-08 13:45:00,
2013-02-08 07:50:00,22.0,16.3,30.30,NE,37,3.3,7.0,78,0.00,,,0.00,CWS Microserver 1.4,2013-02-08 13:50:00,
2013-02-08 07:55:00,22.0,16.3,30.30,NE,35,3.5,5.8,78,0.00,,,0.00,CWS Microserver 1.4,2013-02-08 13:55:00,
2013-02-08 08:00:00,22.0,16.3,30.30,ENE,64,4.5,5.9,78,0.00,,,0.00,CWS Microserver 1.4,2013-02-08 14:00:00,
2013-02-08 08:05:00,22.0,16.3,30.29,ESE,110,6.0,8.4,78,0.00,,,0.00,CWS Microserver 1.4,2013-02-08 14:05:00,
2013-02-08 08:10:00,22.0,16.2,30.29,ESE,113,4.7,9.2,78,0.00,,,0.00,CWS Microserver 1.4,2013-02-08 14:10:00,
2013-02-08 08:15:00,22.1,16.7,30.30,SSE,148,7.9,9.2,79,0.00,,,0.00,CWS Microserver 1.4,2013-02-08 14:15:00,
2013-02-08 08:20:00,22.0,16.1,30.30,SSE,163,3.8,8.2,77,0.00,,,0.00,CWS Microserver 1.4,2013-02-08 14:20:00,
2013-02-08 08:25:00,22.1,16.3,30.30,ESE,121,6.7,7.9,78,0.00,,,0.00,CWS Microserver 1.4,2013-02-08 14:25:00,
2013-02-08 08:30:00,22.0,16.1,30.30,East,98,2.7,8.6,77,0.00,,,0.00,CWS Microserver 1.4,2013-02-08 14:30:00,
2013-02-08 08:35:00,22.0,16.3,30.30,SSE,151,5.4,8.6,78,0.00,,,0.00,CWS Microserver 1.4,2013-02-08 14:35:00,
2013-02-08 08:40:00,22.1,16.2,30.30,SE,128,5.0,5.8,77,0.00,,,0.00,CWS Microserver 1.4,2013-02-08 14:40:00,
2013-02-08 08:45:00,22.1,16.3,30.29,ESE,111,4.6,5.6,78,0.00,,,0.00,CWS Microserver 1.4,2013-02-08 14:45:00,
2013-02-08 08:50:00,22.1,16.6,30.29,SE,130,4.0,6.3,79,0.00,,,0.00,CWS Microserver 1.4,2013-02-08 14:50:00,
2013-02-08 08:55:00,22.1,16.2,30.30,SE,140,5.4,10.1,77,0.00,,,0.00,CWS Microserver 1.4,2013-02-08 14:55:00,
2013-02-08 09:00:00,22.1,16.2,30.30,ESE,105,3.6,10.1,77,0.00,,,0.00,CWS Microserver 1.4,2013-02-08 15:00:00,
2013-02-08 09:05:00,22.1,16.4,30.30,SE,131,4.9,9.3,78,0.00,,,0.00,CWS Microserver 1.4,2013-02-08 15:05:00,
2013-02-08 09:10:00,22.3,16.4,30.30,ESE,115,3.6,6.7,77,0.00,,,0.00,CWS Microserver 1.4,2013-02-08 15:10:00,
2013-02-08 09:15:00,22.3,16.7,30.30,ESE,108,2.9,6.3,78,0.00,,,0.00,CWS Microserver 1.4,2013-02-08 15:15:00,
2013-02-08 09:20:00,22.3,16.7,30.30,SSE,159,9.7,9.8,78,0.00,,,0.00,CWS Microserver 1.4,2013-02-08 15:20:00,
2013-02-08 09:25:00,22.1,16.1,30.30,SE,145,7.3,11.4,77,0.00,,,0.00,CWS Microserver 1.4,2013-02-08 15:25:00,
2013-02-08 09:30:00,22.0,16.0,30.30,SE,126,4.8,11.4,77,0.00,,,0.00,CWS Microserver 1.4,2013-02-08 15:30:00,
2013-02-08 09:40:00,22.3,16.5,30.30,SE,138,4.6,9.1,78,0.00,,,0.00,CWS Microserver 1.4,2013-02-08 15:40:00,
2013-02-08 09:45:00,22.5,16.9,30.30,SE,146,7.0,10.7,78,0.00,,,0.00,CWS Microserver 1.4,2013-02-08 15:45:00,
2013-02-08 09:50:00,22.5,16.9,30.30,SSE,151,7.2,10.7,78,0.00,,,0.00,CWS Microserver 1.4,2013-02-08 15:50:00,
2013-02-08 10:00:00,22.7,16.7,30.30,SSE,162,10.9,11.7,77,0.00,,,0.00,CWS Microserver 1.4,2013-02-08 16:00:00,
2013-02-08 10:05:00,22.7,16.9,30.30,SSE,154,10.4,12.0,78,0.00,,,0.00,CWS Microserver 1.4,2013-02-08 16:05:00,
2013-02-08 10:10:00,22.5,16.5,30.29,ESE,111,5.7,14.9,77,0.00,,,0.00,CWS Microserver 1.4,2013-02-08 16:10:00,
2013-02-08 10:15:00,22.7,17.0,30.29,SE,128,7.7,14.9,78,0.00,,,0.00,CWS Microserver 1.4,2013-02-08 16:15:00,
2013-02-08 10:25:00,23.0,17.6,30.30,SE,142,6.8,11.1,79,0.00,,,0.00,CWS Microserver 1.4,2013-02-08 16:25:00,
2013-02-08 10:30:00,23.0,16.7,30.29,SE,136,9.1,12.3,76,0.00,,,0.00,CWS Microserver 1.4,2013-02-08 16:30:00,
2013-02-08 10:35:00,23.0,17.0,30.29,SE,135,7.4,12.3,77,0.00,,,0.00,CWS Microserver 1.4,2013-02-08 16:35:00,
2013-02-08 10:40:00,23.4,18.0,30.29,SSE,152,11.7,13.9,79,0.00,,,0.00,CWS Microserver 1.4,2013-02-08 16:40:00,
2013-02-08 10:45:00,23.4,16.8,30.29,SE,146,9.0,14.5,75,0.00,,,0.00,CWS Microserver 1.4,2013-02-08 16:45:00,
2013-02-08 10:50:00,23.2,17.5,30.29,SE,133,9.3,14.5,78,0.00,,,0.00,CWS Microserver 1.4,2013-02-08 16:50:00,
2013-02-08 11:00:00,23.4,17.5,30.30,SSE,158,14.0,18.2,77,0.00,,,0.00,CWS Microserver 1.4,2013-02-08 17:00:00,
2013-02-08 11:05:00,23.6,18.1,30.30,SSE,153,10.3,18.2,79,0.00,,,0.00,CWS Microserver 1.4,2013-02-08 17:05:00,
2013-02-08 11:10:00,23.9,17.6,30.30,SSE,150,11.1,14.3,76,0.00,,,0.00,CWS Microserver 1.4,2013-02-08 17:10:00,
2013-02-08 11:15:00,23.6,17.5,30.31,SSE,160,4.1,14.3,77,0.00,,,0.00,CWS Microserver 1.4,2013-02-08 17:15:00,
2013-02-08 11:30:00,24.1,18.4,30.30,South,174,9.4,15.2,78,0.00,,,0.00,CWS Microserver 1.4,2013-02-08 17:30:00,
2013-02-08 11:35:00,24.3,17.9,30.30,SSE,150,11.0,14.7,76,0.00,,,0.00,CWS Microserver 1.4,2013-02-08 17:35:00,
2013-02-08 11:40:00,23.9,17.7,30.30,SSE,155,11.1,14.7,76,0.00,,,0.00,CWS Microserver 1.4,2013-02-08 17:40:00,
2013-02-08 11:45:00,23.8,17.8,30.30,SSE,150,10.4,14.2,77,0.00,,,0.00,CWS Microserver 1.4,2013-02-08 17:45:00,
2013-02-08 11:50:00,24.1,18.2,30.30,South,175,12.4,15.3,77,0.00,,,0.00,CWS Microserver 1.4,2013-02-08 17:50:00,
2013-02-08 11:55:00,24.1,18.4,30.30,SSE,153,8.9,15.3,78,0.00,,,0.00,CWS Microserver 1.4,2013-02-08 17:55:00,
2013-02-08 12:00:00,24.3,18.8,30.29,South,190,9.6,13.4,79,0.00,,,0.00,CWS Microserver 1.4,2013-02-08 18:00:00,
2013-02-08 12:05:00,24.5,18.2,30.29,SSE,149,11.1,16.2,76,0.00,,,0.00,CWS Microserver 1.4,2013-02-08 18:05:00,
2013-02-08 12:10:00,24.5,18.6,30.29,South,180,8.7,16.2,77,0.00,,,0.00,CWS Microserver 1.4,2013-02-08 18:10:00,
2013-02-08 12:15:00,24.5,18.1,30.29,SSE,158,11.7,16.2,76,0.00,,,0.00,CWS Microserver 1.4,2013-02-08 18:15:00,
2013-02-08 12:20:00,24.3,18.4,30.29,SSE,153,10.8,15.6,77,0.00,,,0.00,CWS Microserver 1.4,2013-02-08 18:20:00,
2013-02-08 12:25:00,24.5,18.7,30.28,South,172,8.7,15.6,78,0.00,,,0.00,CWS Microserver 1.4,2013-02-08 18:25:00,
2013-02-08 12:30:00,24.7,19.1,30.28,SE,143,12.4,15.1,78,0.00,,,0.00,CWS Microserver 1.4,2013-02-08 18:30:00,
2013-02-08 12:40:00,24.8,18.8,30.27,SSE,160,10.7,15.6,77,0.00,,,0.00,CWS Microserver 1.4,2013-02-08 18:40:00,
2013-02-08 12:45:00,24.8,18.9,30.27,SSE,148,14.3,15.6,77,0.00,,,0.00,CWS Microserver 1.4,2013-02-08 18:45:00,
2013-02-08 12:50:00,24.8,19.4,30.27,SSE,148,10.9,15.0,79,0.00,,,0.00,CWS Microserver 1.4,2013-02-08 18:50:00,
2013-02-08 13:00:00,25.0,19.6,30.27,SE,142,10.6,16.7,79,0.00,,,0.00,CWS Microserver 1.4,2013-02-08 19:00:00,
2013-02-08 13:05:00,25.0,19.1,30.27,SSE,162,10.8,16.7,78,0.00,,,0.00,CWS Microserver 1.4,2013-02-08 19:05:00,
2013-02-08 13:10:00,25.0,19.9,30.27,SE,142,12.9,14.7,80,0.00,,,0.00,CWS Microserver 1.4,2013-02-08 19:10:00,
2013-02-08 13:15:00,25.4,19.5,30.27,SSE,154,9.5,15.6,77,0.00,,,0.00,CWS Microserver 1.4,2013-02-08 19:15:00,
2013-02-08 13:20:00,25.4,19.4,30.27,SSE,163,9.5,15.6,77,0.00,,,0.00,CWS Microserver 1.4,2013-02-08 19:20:00,
2013-02-08 13:25:00,25.4,19.4,30.26,SSW,195,10.0,15.3,77,0.00,,,0.00,CWS Microserver 1.4,2013-02-08 19:25:00,
2013-02-08 13:30:00,25.4,19.9,30.26,SSE,167,7.7,15.4,79,0.00,,,0.00,CWS Microserver 1.4,2013-02-08 19:30:00,
2013-02-08 13:35:00,25.6,19.8,30.26,SSE,168,12.1,15.4,78,0.00,,,0.00,CWS Microserver 1.4,2013-02-08 19:35:00,
2013-02-08 13:40:00,25.2,19.8,30.26,SSE,165,13.0,19.5,79,0.00,,,0.00,CWS Microserver 1.4,2013-02-08 19:40:00,
2013-02-08 13:50:00,25.9,19.7,30.26,SSW,192,8.5,15.0,77,0.00,,,0.00,CWS Microserver 1.4,2013-02-08 19:50:00,
2013-02-08 13:55:00,25.4,19.5,30.26,SSE,163,9.1,15.1,78,0.00,,,0.00,CWS Microserver 1.4,2013-02-08 19:55:00,
2013-02-08 14:00:00,25.4,19.8,30.26,SSE,161,12.0,15.4,79,0.00,,,0.00,CWS Microserver 1.4,2013-02-08 20:00:00,
2013-02-08 14:05:00,25.9,20.7,30.26,SSE,163,14.7,15.4,80,0.00,,,0.00,CWS Microserver 1.4,2013-02-08 20:05:00,
2013-02-08 14:10:00,25.9,20.6,30.25,SSE,160,12.6,18.2,80,0.00,,,0.00,CWS Microserver 1.4,2013-02-08 20:10:00,
2013-02-08 14:15:00,25.9,20.0,30.25,South,175,16.1,18.2,78,0.00,,,0.00,CWS Microserver 1.4,2013-02-08 20:15:00,
2013-02-08 14:20:00,25.7,19.8,30.25,SSE,160,15.3,18.0,77,0.00,,,0.00,CWS Microserver 1.4,2013-02-08 20:20:00,
2013-02-08 14:30:00,26.3,20.7,30.24,SSE,149,18.0,18.0,79,0.00,,,0.00,CWS Microserver 1.4,2013-02-08 20:30:00,
2013-02-08 14:35:00,26.1,20.3,30.24,SSE,159,18.3,18.8,78,0.00,,,0.00,CWS Microserver 1.4,2013-02-08 20:35:00,
2013-02-08 14:40:00,25.9,20.0,30.23,SSE,159,13.2,18.8,78,0.00,,,0.00,CWS Microserver 1.4,2013-02-08 20:40:00,
2013-02-08 14:50:00,26.3,20.6,30.23,SSE,150,14.5,22.3,78,0.00,,,0.00,CWS Microserver 1.4,2013-02-08 20:50:00,
2013-02-08 14:55:00,26.6,20.5,30.23,South,175,11.1,18.9,77,0.00,,,0.00,CWS Microserver 1.4,2013-02-08 20:55:00,
2013-02-08 15:00:00,26.6,20.7,30.23,South,178,17.3,17.9,78,0.00,,,0.00,CWS Microserver 1.4,2013-02-08 21:00:00,
2013-02-08 15:05:00,26.6,20.4,30.23,SSE,157,18.3,18.3,77,0.00,,,0.00,CWS Microserver 1.4,2013-02-08 21:05:00,
2013-02-08 15:10:00,26.6,20.5,30.22,SSE,164,14.8,18.4,77,0.00,,,0.00,CWS Microserver 1.4,2013-02-08 21:10:00,
2013-02-08 15:20:00,26.8,20.5,30.22,SSE,162,14.6,19.6,76,0.00,,,0.00,CWS Microserver 1.4,2013-02-08 21:20:00,
2013-02-08 15:25:00,27.0,20.4,30.22,SSE,167,12.8,19.6,75,0.00,,,0.00,CWS Microserver 1.4,2013-02-08 21:25:00,
2013-02-08 15:35:00,26.8,20.6,30.21,SSE,158,14.6,19.6,77,0.00,,,0.00,CWS Microserver 1.4,2013-02-08 21:35:00,
2013-02-08 15:40:00,26.8,20.6,30.21,SSE,153,14.6,19.6,77,0.00,,,0.00,CWS Microserver 1.4,2013-02-08 21:40:00,
2013-02-08 15:50:00,27.7,20.7,30.21,SSE,163,16.0,19.0,74,0.00,,,0.00,CWS Microserver 1.4,2013-02-08 21:50:00,
2013-02-08 15:55:00,27.7,20.5,30.21,South,176,12.5,20.5,74,0.00,,,0.00,CWS Microserver 1.4,2013-02-08 21:55:00,
2013-02-08 16:00:00,27.4,20.8,30.21,SSE,151,12.5,20.6,75,0.00,,,0.00,CWS Microserver 1.4,2013-02-08 22:00:00,
2013-02-08 16:05:00,27.5,20.9,30.21,South,184,9.7,20.6,75,0.00,,,0.00,CWS Microserver 1.4,2013-02-08 22:05:00,
2013-02-08 16:10:00,27.5,21.2,30.21,SSE,167,6.8,21.1,76,0.00,,,0.00,CWS Microserver 1.4,2013-02-08 22:10:00,
2013-02-08 16:15:00,27.7,21.0,30.21,South,172,14.8,21.1,75,0.00,,,0.00,CWS Microserver 1.4,2013-02-08 22:15:00,
2013-02-08 16:20:00,27.4,20.9,30.20,SSE,167,11.1,20.3,76,0.00,,,0.00,CWS Microserver 1.4,2013-02-08 22:20:00,
2013-02-08 16:25:00,27.7,21.2,30.20,SE,145,16.5,20.3,76,0.00,,,0.00,CWS Microserver 1.4,2013-02-08 22:25:00,
2013-02-08 16:35:00,27.7,21.6,30.19,SE,141,12.8,21.7,77,0.00,,,0.00,CWS Microserver 1.4,2013-02-08 22:35:00,
2013-02-08 16:40:00,27.7,20.8,30.19,SSE,150,19.0,21.8,75,0.00,,,0.00,CWS Microserver 1.4,2013-02-08 22:40:00,
2013-02-08 16:45:00,27.5,20.6,30.19,SSE,153,14.7,21.8,75,0.00,,,0.00,CWS Microserver 1.4,2013-02-08 22:45:00,
2013-02-08 16:50:00,27.4,20.7,30.19,South,177,16.1,21.7,75,0.00,,,0.00,CWS Microserver 1.4,2013-02-08 22:50:00,
2013-02-08 16:55:00,27.4,21.7,30.19,SE,145,10.1,21.7,79,0.00,,,0.00,CWS Microserver 1.4,2013-02-08 22:55:00,
2013-02-08 17:00:00,27.2,21.1,30.18,SSE,151,14.4,17.4,77,0.00,,,0.00,CWS Microserver 1.4,2013-02-08 23:00:00,
2013-02-08 17:05:00,27.2,21.1,30.18,SE,144,9.5,17.0,77,0.00,,,0.00,CWS Microserver 1.4,2013-02-08 23:05:00,
2013-02-08 17:10:00,27.0,21.1,30.18,SE,140,14.4,20.8,78,0.00,,,0.00,CWS Microserver 1.4,2013-02-08 23:10:00,
2013-02-08 17:15:00,27.0,21.8,30.18,SE,136,10.8,20.8,80,0.00,,,0.00,CWS Microserver 1.4,2013-02-08 23:15:00,
2013-02-08 17:20:00,26.8,21.0,30.18,SSE,153,14.8,19.2,78,0.00,,,0.00,CWS Microserver 1.4,2013-02-08 23:20:00,
2013-02-08 17:25:00,26.6,21.1,30.19,SSE,150,12.4,19.2,79,0.00,,,0.00,CWS Microserver 1.4,2013-02-08 23:25:00,
2013-02-08 17:30:00,26.6,21.3,30.19,SSE,154,10.2,16.4,80,0.00,,,0.00,CWS Microserver 1.4,2013-02-08 23:30:00,
2013-02-08 17:35:00,26.6,21.5,30.18,SSE,154,10.4,15.6,80,0.00,,,0.00,CWS Microserver 1.4,2013-02-08 23:35:00,
2013-02-08 17:40:00,26.6,21.4,30.18,SSE,155,11.1,19.0,80,0.00,,,0.00,CWS Microserver 1.4,2013-02-08 23:40:00,
2013-02-08 17:45:00,26.3,21.3,30.19,SSE,154,10.8,19.0,81,0.00,,,0.00,CWS Microserver 1.4,2013-02-08 23:45:00,
2013-02-08 17:50:00,26.3,21.4,30.18,SSE,148,14.6,15.7,81,0.00,,,0.00,CWS Microserver 1.4,2013-02-08 23:50:00,
2013-02-08 17:55:00,26.1,20.9,30.18,SSE,156,15.3,19.0,80,0.00,,,0.00,CWS Microserver 1.4,2013-02-08 23:55:00,
2013-02-08 18:00:00,26.1,21.0,30.18,SE,145,13.4,19.3,80,0.00,,,0.00,CWS Microserver 1.4,2013-02-09 00:00:00,
2013-02-08 18:05:00,25.9,21.0,30.18,SSE,158,12.1,19.3,81,0.00,,,0.00,CWS Microserver 1.4,2013-02-09 00:05:00,
2013-02-08 18:10:00,25.9,21.2,30.18,SSE,164,13.8,17.8,82,0.00,,,0.00,CWS Microserver 1.4,2013-02-09 00:10:00,
2013-02-08 18:15:00,25.7,21.2,30.19,SSE,158,14.0,17.0,82,0.00,,,0.00,CWS Microserver 1.4,2013-02-09 00:15:00,
2013-02-08 18:20:00,25.9,21.2,30.19,SSE,158,13.3,19.4,82,0.00,,,0.00,CWS Microserver 1.4,2013-02-09 00:20:00,
2013-02-08 18:25:00,25.9,21.0,30.18,SSE,156,15.5,19.4,81,0.00,,,0.00,CWS Microserver 1.4,2013-02-09 00:25:00,
2013-02-08 18:30:00,25.9,21.0,30.18,SSE,151,16.5,21.0,81,0.00,,,0.00,CWS Microserver 1.4,2013-02-09 00:30:00,
2013-02-08 18:35:00,25.9,21.0,30.18,SE,144,15.7,21.2,81,0.00,,,0.00,CWS Microserver 1.4,2013-02-09 00:35:00,
2013-02-08 18:40:00,25.7,20.9,30.17,SSE,158,18.9,21.2,81,0.00,,,0.00,CWS Microserver 1.4,2013-02-09 00:40:00,
2013-02-08 18:45:00,25.6,20.9,30.17,South,171,13.5,20.2,82,0.00,,,0.00,CWS Microserver 1.4,2013-02-09 00:45:00,
2013-02-08 18:50:00,25.6,21.0,30.17,SSE,154,16.3,20.4,82,0.00,,,0.00,CWS Microserver 1.4,2013-02-09 00:50:00,
2013-02-08 18:55:00,25.6,20.8,30.17,SSE,159,19.2,24.2,81,0.00,,,0.00,CWS Microserver 1.4,2013-02-09 00:55:00,
2013-02-08 19:00:00,25.6,20.9,30.17,SSE,165,16.9,24.2,82,0.00,,,0.00,CWS Microserver 1.4,2013-02-09 01:00:00,
2013-02-08 19:05:00,25.6,20.7,30.17,SSE,154,21.3,25.9,81,0.00,,,0.00,CWS Microserver 1.4,2013-02-09 01:05:00,
2013-02-08 19:10:00,25.6,20.8,30.17,South,169,21.7,25.9,81,0.00,,,0.00,CWS Microserver 1.4,2013-02-09 01:10:00,
2013-02-08 19:15:00,25.4,20.7,30.17,SSE,154,18.8,24.4,82,0.00,,,0.00,CWS Microserver 1.4,2013-02-09 01:15:00,
2013-02-08 19:20:00,25.4,20.7,30.17,SSE,159,17.6,27.5,82,0.00,,,0.00,CWS Microserver 1.4,2013-02-09 01:20:00,
2013-02-08 19:25:00,25.4,20.6,30.17,SSE,163,19.9,27.5,81,0.00,,,0.00,CWS Microserver 1.4,2013-02-09 01:25:00,
2013-02-08 19:30:00,25.4,20.6,30.16,SSE,162,22.6,28.9,81,0.00,,,0.00,CWS Microserver 1.4,2013-02-09 01:30:00,
2013-02-08 19:35:00,25.4,20.6,30.16,SSE,167,17.7,28.9,81,0.00,,,0.00,CWS Microserver 1.4,2013-02-09 01:35:00,
2013-02-08 19:40:00,25.2,20.6,30.16,SSE,152,19.5,28.6,82,0.00,,,0.00,CWS Microserver 1.4,2013-02-09 01:40:00,
2013-02-08 19:45:00,25.2,20.7,30.16,SSE,162,22.9,28.2,82,0.00,,,0.00,CWS Microserver 1.4,2013-02-09 01:45:00,
2013-02-08 19:50:00,25.2,20.7,30.16,SSE,164,25.5,28.2,82,0.00,,,0.00,CWS Microserver 1.4,2013-02-09 01:50:00,
2013-02-08 19:55:00,25.2,20.8,30.16,SSE,162,18.4,26.4,83,0.00,,,0.00,CWS Microserver 1.4,2013-02-09 01:55:00,
2013-02-08 20:00:00,25.2,20.9,30.16,SSE,161,15.5,25.5,83,0.00,,,0.00,CWS Microserver 1.4,2013-02-09 02:00:00,
2013-02-08 20:05:00,25.2,21.0,30.16,SSE,165,20.8,23.7,83,0.00,,,0.00,CWS Microserver 1.4,2013-02-09 02:05:00,
2013-02-08 20:10:00,25.0,20.7,30.16,SSE,163,18.8,24.8,83,0.00,,,0.00,CWS Microserver 1.4,2013-02-09 02:10:00,
2013-02-08 20:15:00,25.0,20.9,30.16,SSE,158,13.0,24.8,84,0.00,,,0.00,CWS Microserver 1.4,2013-02-09 02:15:00,
2013-02-08 20:20:00,24.7,20.6,30.16,SSE,161,21.5,27.2,84,0.00,,,0.00,CWS Microserver 1.4,2013-02-09 02:20:00,
2013-02-08 20:25:00,24.7,20.6,30.15,SSE,160,30.5,31.8,84,0.00,,,0.00,CWS Microserver 1.4,2013-02-09 02:25:00,
2013-02-08 20:30:00,24.7,20.8,30.16,SSE,165,14.5,31.8,84,0.00,,,0.00,CWS Microserver 1.4,2013-02-09 02:30:00,
2013-02-08 20:35:00,24.5,20.6,30.15,SSE,155,17.2,30.5,84,0.00,,,0.00,CWS Microserver 1.4,2013-02-09 02:35:00,
2013-02-08 20:40:00,24.5,20.7,30.15,SSE,161,18.1,27.9,85,0.00,,,0.00,CWS Microserver 1.4,2013-02-09 02:40:00,
2013-02-08 20:45:00,24.5,20.8,30.15,SSE,163,20.8,25.9,85,0.00,,,0.00,CWS Microserver 1.4,2013-02-09 02:45:00,
2013-02-08 20:50:00,24.5,20.6,30.15,SSE,157,26.1,30.1,84,0.00,,,0.00,CWS Microserver 1.4,2013-02-09 02:50:00,
2013-02-08 20:55:00,24.3,20.5,30.15,SSE,163,19.5,30.1,85,0.00,,,0.00,CWS Microserver 1.4,2013-02-09 02:55:00,
2013-02-08 21:00:00,24.1,20.4,30.15,South,175,18.4,28.9,85,0.00,,,0.00,CWS Microserver 1.4,2013-02-09 03:00:00,
2013-02-08 21:05:00,24.1,20.3,30.15,South,174,24.0,28.9,85,0.00,,,0.00,CWS Microserver 1.4,2013-02-09 03:05:00,
2013-02-08 21:10:00,24.1,20.4,30.15,SSE,168,18.8,28.9,85,0.00,,,0.00,CWS Microserver 1.4,2013-02-09 03:10:00,
2013-02-08 21:15:00,24.3,20.7,30.15,SSE,160,20.4,28.1,86,0.00,,,0.00,CWS Microserver 1.4,2013-02-09 03:15:00,
2013-02-08 21:20:00,24.3,20.7,30.14,South,169,17.5,26.8,86,0.00,,,0.00,CWS Microserver 1.4,2013-02-09 03:20:00,
2013-02-08 21:25:00,24.5,21.0,30.15,SSE,162,20.1,28.6,86,0.00,,,0.00,CWS Microserver 1.4,2013-02-09 03:25:00,
2013-02-08 21:30:00,24.5,20.9,30.15,SSE,157,21.7,28.6,86,0.00,,,0.00,CWS Microserver 1.4,2013-02-09 03:30:00,
2013-02-08 21:35:00,24.3,20.8,30.15,SSE,164,19.1,25.0,86,0.00,,,0.00,CWS Microserver 1.4,2013-02-09 03:35:00,
2013-02-08 21:40:00,24.3,20.8,30.14,SSE,150,15.8,24.2,86,0.00,,,0.00,CWS Microserver 1.4,2013-02-09 03:40:00,
2013-02-08 21:45:00,24.3,20.8,30.15,South,174,19.5,26.0,86,0.00,,,0.00,CWS Microserver 1.4,2013-02-09 03:45:00,
2013-02-08 21:50:00,24.3,20.8,30.15,SSE,168,20.5,26.0,86,0.00,,,0.00,CWS Microserver 1.4,2013-02-09 03:50:00,
2013-02-08 21:55:00,24.5,21.1,30.15,SSE,163,14.2,25.0,86,0.00,,,0.00,CWS Microserver 1.4,2013-02-09 03:55:00,
2013-02-08 22:00:00,24.3,21.0,30.15,SSE,163,17.3,21.4,86,0.00,,,0.00,CWS Microserver 1.4,2013-02-09 04:00:00,
2013-02-08 22:05:00,24.1,20.8,30.15,South,171,14.3,25.3,87,0.00,,,0.00,CWS Microserver 1.4,2013-02-09 04:05:00,
2013-02-08 22:10:00,24.1,20.9,30.15,South,170,15.1,25.6,87,0.00,,,0.00,CWS Microserver 1.4,2013-02-09 04:10:00,
2013-02-08 22:15:00,24.1,20.9,30.15,SSE,153,15.9,25.6,87,0.00,,,0.00,CWS Microserver 1.4,2013-02-09 04:15:00,
2013-02-08 22:20:00,24.3,21.0,30.15,South,169,16.4,24.8,87,0.00,,,0.00,CWS Microserver 1.4,2013-02-09 04:20:00,
2013-02-08 22:25:00,24.3,20.9,30.15,SSE,168,14.9,26.2,86,0.00,,,0.00,CWS Microserver 1.4,2013-02-09 04:25:00,
2013-02-08 22:30:00,24.3,20.9,30.14,SSE,168,17.6,26.2,86,0.00,,,0.00,CWS Microserver 1.4,2013-02-09 04:30:00,
2013-02-08 22:35:00,24.3,21.0,30.14,South,177,17.1,23.3,87,0.00,,,0.00,CWS Microserver 1.4,2013-02-09 04:35:00,
2013-02-08 22:40:00,24.1,20.7,30.14,South,173,18.0,29.4,86,0.00,,,0.00,CWS Microserver 1.4,2013-02-09 04:40:00,
2013-02-08 22:45:00,24.1,20.8,30.13,South,172,22.4,29.4,86,0.00,,,0.00,CWS Microserver 1.4,2013-02-09 04:45:00,
2013-02-08 22:50:00,24.3,21.0,30.13,South,181,14.1,27.3,87,0.00,,,0.00,CWS Microserver 1.4,2013-02-09 04:50:00,
2013-02-08 22:55:00,24.3,21.0,30.14,SSE,166,15.5,25.3,87,0.00,,,0.00,CWS Microserver 1.4,2013-02-09 04:55:00,
2013-02-08 23:00:00,24.3,21.0,30.14,South,181,20.2,24.7,86,0.00,,,0.00,CWS Microserver 1.4,2013-02-09 05:00:00,
2013-02-08 23:05:00,24.1,20.7,30.14,South,177,16.0,23.1,86,0.00,,,0.00,CWS Microserver 1.4,2013-02-09 05:05:00,
2013-02-08 23:10:00,24.1,20.7,30.14,SSE,164,16.1,24.0,86,0.00,,,0.00,CWS Microserver 1.4,2013-02-09 05:10:00,
2013-02-08 23:15:00,24.1,20.7,30.15,South,179,15.9,26.5,86,0.00,,,0.00,CWS Microserver 1.4,2013-02-09 05:15:00,
2013-02-08 23:25:00,24.1,20.9,30.15,South,177,19.5,25.0,87,0.00,,,0.00,CWS Microserver 1.4,2013-02-09 05:25:00,
2013-02-08 23:30:00,24.1,20.9,30.15,South,182,10.0,23.1,87,0.00,,,0.00,CWS Microserver 1.4,2013-02-09 05:30:00,
2013-02-08 23:35:00,24.3,21.1,30.14,South,176,13.4,23.1,87,0.00,,,0.00,CWS Microserver 1.4,2013-02-09 05:35:00,
2013-02-08 23:40:00,24.3,21.0,30.15,South,177,14.6,22.5,86,0.00,,,0.00,CWS Microserver 1.4,2013-02-09 05:40:00,
2013-02-08 23:45:00,24.3,21.0,30.15,SSW,197,14.7,24.3,87,0.00,,,0.00,CWS Microserver 1.4,2013-02-09 05:45:00,
2013-02-08 23:50:00,24.3,21.1,30.14,South,181,16.1,24.9,87,0.00,,,0.00,CWS Microserver 1.4,2013-02-09 05:50:00,
2013-02-08 23:55:00,24.3,21.1,30.15,South,179,15.5,24.9,87,0.00,,,0.00,CWS Microserver 1.4,2013-02-09 05:55:00,